Regional Weather Roundup
Issued by NWS

Home | Current Version | Previous Version | Graphics & Text | Print | Product List | Glossary On
Versions: 1 2 3 4 5 6 7 8 9 10 11 12 13 14 15 16 17 18 19 20 21 22 23 24 25 26 27 28 29 30 31 32 33 34 35 36 37 38 39 40 41 42 43 44 45 46 47 48
000
ASUS45 KBOU 170907
RWRCO

WEATHER ROUNDUP FOR COLORADO
NATIONAL WEATHER SERVICE DENVER/BOULDER CO
300 AM MDT WED SEP 17 2014

NOTE: "FAIR" INDICATES FEW OR NO CLOUDS BELOW 12000 FEET WITH NO
SIGNIFICANT WEATHER AND/OR OBSTRUCTIONS TO VISIBILITY.

COZ001>005-013-030-031-171000-
...NORTHWEST COLORADO...

CITY           SKY/WX    TMP DP  RH WIND       PRES   REMARKS
CRAIG          CLEAR     43  37  79 SW5       30.19F
HAYDEN         CLEAR     52  34  50 E14       30.20F
MEEKER         CLEAR     49  39  68 E6        30.21F
MOUNT WERNER   NOT AVBL
STEAMBOAT SPGS CLEAR     46  37  70 CALM      30.24S
WALDEN         MOCLDY    37  32  81 SE6       30.30F
$$

COZ006>008-011-171000-
...WEST CENTRAL VALLEYS...

CITY           SKY/WX    TMP DP  RH WIND       PRES   REMARKS
GRAND JUNCTION PTCLDY    61  42  49 E10       30.07F
MONTROSE       CLEAR     59  40  49 SE8       30.17F
EAGLE          CLEAR     48  39  71 CALM      30.28S
RIFLE          CLEAR     52  44  74 E5        30.16S
DELTA          CLEAR     57  44  60 CALM      30.13F
NUCLA          CLEAR     59  39  47 E7        30.20F
$$

COZ017>023-064>068-171000-
...SOUTHWEST COLORADO...

CITY           SKY/WX    TMP DP  RH WIND       PRES   REMARKS
DURANGO        PTCLDY    56  45  66 N6        30.24F
CORTEZ         CLEAR     53  48  83 SE6       30.19S
PAGOSA SPRINGS PTCLDY    48  41  76 CALM      30.31F
TELLURIDE      NOT AVBL
WOLF CREEK PAS PTCLDY    43  37  81 W5        30.57F
$$

COZ009-010-012-014-032>034-037-058>063-171000-
...CENTRAL COLORADO...

CITY           SKY/WX    TMP DP  RH WIND       PRES   REMARKS
ASPEN          CLEAR     49  35  58 VRB7        N/A
BUENA VISTA    CLEAR     49  33  53 NW5       30.33S
COPPER MTN     CLEAR     50  30  46 S13       30.59S
BERTHOUD PASS  FAIR      41  37  87 W13       30.63S
COTTONWOOD PAS CLEAR     57  30  35 W7        30.44F
GUNNISON       PTCLDY    46  34  61 CALM      30.34F
KREMMLING      CLEAR     37  34  87 CALM      30.33R
LEADVILLE      CLEAR     40  29  64 CALM      30.44F
SALIDA         CLEAR     57  34  42 NW8       30.37S
SUNLIGHT       CLEAR     55  32  41 CALM      30.52S
WILKERSON PASS NOT AVBL
$$

COZ069>075-171000-
...SAN LUIS VALLEY/SANGRE DE CRISTO MOUNTAINS...

CITY           SKY/WX    TMP DP  RH WIND       PRES   REMARKS
ALAMOSA        MOCLDY    50  43  77 SE3       30.29S
LA VETA PASS   NOT AVBL
SAGUACHE       PTCLDY    50  34  53 N7        30.33S
$$

COZ035-036-038>040-171000-
...NORTHERN COLORADO FRONT RANGE...

CITY           SKY/WX    TMP DP  RH WIND       PRES   REMARKS
DENVER INTL AP PTCLDY    62  38  40 SW12      30.08F
DMNS CITY PARK   N/A     62  42  48 S8        30.08S
AURORA         PTCLDY    61  38  43 S13       30.11F
FRONT RANGE AP CLEAR     64  37  36 S14       30.09F
ERIE MUNI ARPT CLEAR     49  44  82 CALM      30.08R
BOULDER MUN AP CLEAR     59  41  51 CALM      30.07F
CENTENNIAL     PTCLDY    61  39  44 S8        30.13S
BROOMFIELD     CLEAR     64  34  32 CALM      30.10F
FORT COLLINS   CLEAR     55  41  58 N3        30.08F
LONGMONT       CLEAR     53  44  70 CALM      30.08F
$$

COZ041-046-047-076>085-087-088-171000-
...PIKES PEAK/PALMER DIVIDE AND SOUTHERN FOOTHILLS...

CITY           SKY/WX    TMP DP  RH WIND       PRES   REMARKS
COLO. SPRINGS  PTCLDY    55  38  52 N9        30.17F
A. F. ACADEMY  CLEAR     47  38  69 N13       30.19F
ELLICOTT       NOT AVBL
FALCON         PTCLDY    51  38  62 W7        30.22F
FORT CARSON    PTCLDY    58  39  49 NW10      30.14F
LIMON          CLEAR     47  41  80 N7        30.11F
MONUMENT HILL  CLEAR     55  34  44 SW9       30.21S
TRINIDAD       CLOUDY    62  47  57 W16       30.14F
$$

COZ042>045-048>051-090-091-171000-
...NORTHEAST COLORADO...

CITY           SKY/WX    TMP DP  RH WIND       PRES   REMARKS
GREELEY ARPT   CLEAR     48  37  66 CALM      30.06F
AKRON          CLEAR     57  45  64 W12       30.04F
BURLINGTON     CLEAR     53  47  79 W7        30.02F
WRAY           CLEAR     54  48  82 W3        29.98F
STERLING       CLEAR     52  48  87 S6        30.02S
HOLYOKE        CLEAR     52  46  82 NW5       30.00F
FORT MORGAN    CLEAR     55  41  60 NW6       30.04F
$$

COZ086-089-092>099-171000-
...SOUTHEAST COLORADO...

CITY           SKY/WX    TMP DP  RH WIND       PRES   REMARKS
PUEBLO         MOCLDY    56  41  57 CALM      30.07F
LA JUNTA       PTCLDY    56  47  71 W5        30.03F
LAMAR          CLEAR     53  51  93 SW7       29.98F
SPRINGFIELD      N/A     58  54  86 W6        30.03F
$$


USA.gov is the U.S. government's official web portal to all federal, state and local government web resources and services.